This is the latest recevied weather packets stored in our database for station/object KC5DAQ-27. If no packets are shown the sender has not sent any weather packets the latest 1 day(s).
| Time | Temp. | Humidity | Pressure | Rain* | Wind** | Luminosity | Snow |
|---|---|---|---|---|---|---|---|
| 1778092508 | 26.67° C | 89% | 1000.9 hPa | 0 mm | - | 123 W/m² | - |
| 1778092449 | 26.67° C | 89% | 1000.9 hPa | 0 mm | - | 118 W/m² | - |
| 1778092149 | 26.67° C | 88% | 1001 hPa | 0 mm | - | 109 W/m² | - |
| 1778092028 | 26.67° C | 88% | 1001 hPa | 0 mm | - | 114 W/m² | - |
| 1778091668 | 26.67° C | 87% | 1001 hPa | 0 mm | - | 164 W/m² | - |
| 1778091428 | 26.67° C | 87% | 1001.1 hPa | 0 mm | - | 190 W/m² | - |
| 1778091309 | 26.67° C | 88% | 1001.2 hPa | 0 mm | - | 220 W/m² | - |
| 1778091129 | 26.67° C | 88% | 1001.2 hPa | 0 mm | - | 292 W/m² | - |
| 1778091068 | 26.67° C | 88% | 1001.3 hPa | 0 mm | - | 364 W/m² | - |
| 1778090949 | 26.67° C | 88% | 1001.3 hPa | 0 mm | - | 427 W/m² | - |
| 1778090829 | 26.67° C | 88% | 1001.3 hPa | 0 mm | - | 440 W/m² | - |
| 1778090647 | 26.67° C | 88% | 1001.4 hPa | 0 mm | - | 339 W/m² | - |
| 1778090348 | 26.67° C | 87% | 1001.6 hPa | 0 mm | - | 338 W/m² | - |
| 1778090288 | 26.67° C | 87% | 1001.7 hPa | 0 mm | - | 336 W/m² | - |
| 1778090109 | 26.67° C | 87% | 1001.6 hPa | 0 mm | - | 297 W/m² | - |
| 1778089868 | 27.22° C | 86% | 1001.6 hPa | 0 mm | - | 329 W/m² | - |
| 1778089747 | 27.22° C | 85% | 1001.6 hPa | 0 mm | - | 331 W/m² | - |
| 1778088967 | 27.78° C | 84% | 1002 hPa | 0 mm | - | 216 W/m² | - |
| 1778088848 | 27.78° C | 85% | 1002 hPa | 0 mm | - | 208 W/m² | - |
| 1778088547 | 27.78° C | 85% | 1002 hPa | 0 mm | - | 237 W/m² | - |
| 1778088246 | 27.22° C | 85% | 1002.1 hPa | 0 mm | - | 253 W/m² | - |
| 1778088067 | 27.22° C | 85% | 1002.1 hPa | 0 mm | - | 262 W/m² | - |
| 1778088007 | 27.22° C | 86% | 1002.1 hPa | 0 mm | - | 264 W/m² | - |
| 1778087886 | 27.22° C | 85% | 1002.1 hPa | 0 mm | - | 258 W/m² | - |
| 1778087587 | 27.22° C | 86% | 1002.2 hPa | 0 mm | - | 190 W/m² | - |
* Rain latest hour (hover to see other rain measurements)
** Current wind speed in m/s (hover to see current wind gust speed)